Location: Newark
(11.2914°S, 14.4718°E)
Time: 18:47:45
(UTC+00:00)

Tiros 1 despin weight - Pass Details

Date: 18 September 2019
Orbit: 593 x 643 km, 48.2° (Epoch: 22 October)

Event Time Altitude Azimuth Distance (km) Brightness Sun altitude
Rises 22:06:36 0° 301° (WNW) 2,835 - -74.4°
Reaches altitude 10° 22:09:03 10° 291° (WNW) 1,944 - -74.9°
Maximum altitude 22:13:03 32° 227° (SW) 1,051 - -75.6°
Drops below altitude 10° 22:17:08 10° 163° (SSE) 1,983 - -76.4°
Sets 22:19:40 0° 153° (SSE) 2,902 - -76.8°
